Year,Month,Day,Hour,Minute,Value (Times are PST for temperature in C)
2008,06,29,00,00,19.80
2008,06,29,00,01,19.70
2008,06,29,00,02,19.70
2008,06,29,00,03,19.70
2008,06,29,00,04,19.70
2008,06,29,00,05,19.70
2008,06,29,00,06,19.60
2008,06,29,00,07,19.60
2008,06,29,00,08,19.60
2008,06,29,00,09,19.60
2008,06,29,00,10,19.60
2008,06,29,00,11,19.60
2008,06,29,00,12,19.60
2008,06,29,00,13,19.60
2008,06,29,00,14,19.60
2008,06,29,00,15,19.60
2008,06,29,00,16,19.60
2008,06,29,00,17,19.50
2008,06,29,00,18,19.50
2008,06,29,00,19,19.50
2008,06,29,00,20,19.50
2008,06,29,00,21,19.50
2008,06,29,00,22,19.50
2008,06,29,00,23,19.50
2008,06,29,00,24,19.50
2008,06,29,00,25,19.50
2008,06,29,00,26,19.50
2008,06,29,00,27,19.50
2008,06,29,00,28,19.50
2008,06,29,00,29,19.50
2008,06,29,00,30,19.40
2008,06,29,00,31,19.40
2008,06,29,00,32,19.40
2008,06,29,00,33,19.40
2008,06,29,00,34,19.40
2008,06,29,00,35,19.30
2008,06,29,00,36,19.30
2008,06,29,00,37,19.30
2008,06,29,00,38,19.30
2008,06,29,00,39,19.20
2008,06,29,00,40,19.20
2008,06,29,00,41,19.20
2008,06,29,00,42,19.20
2008,06,29,00,43,19.10
2008,06,29,00,44,19.10
2008,06,29,00,45,19.10
2008,06,29,00,46,19.10
2008,06,29,00,47,19.10
2008,06,29,00,48,19.10
2008,06,29,00,49,19.10
2008,06,29,00,50,19.00
2008,06,29,00,51,18.90
2008,06,29,00,52,18.90
2008,06,29,00,53,18.80
2008,06,29,00,54,18.70
2008,06,29,00,55,18.70
2008,06,29,00,56,18.60
2008,06,29,00,57,18.50
2008,06,29,00,58,18.50
2008,06,29,00,59,18.40
2008,06,29,01,00,18.40
2008,06,29,01,01,18.30
2008,06,29,01,02,18.30
2008,06,29,01,03,18.40
2008,06,29,01,04,18.40
2008,06,29,01,05,18.40
2008,06,29,01,06,18.40
2008,06,29,01,07,18.40
2008,06,29,01,08,18.50
2008,06,29,01,09,18.50
2008,06,29,01,10,18.50
2008,06,29,01,11,18.50
2008,06,29,01,12,18.60
2008,06,29,01,13,18.60
2008,06,29,01,14,18.70
2008,06,29,01,15,18.70
2008,06,29,01,16,18.70
2008,06,29,01,17,18.70
2008,06,29,01,18,18.80
2008,06,29,01,19,18.80
2008,06,29,01,20,18.80
2008,06,29,01,21,18.90
2008,06,29,01,22,18.90
2008,06,29,01,23,18.90
2008,06,29,01,24,18.90
2008,06,29,01,25,18.90
2008,06,29,01,26,18.90
2008,06,29,01,27,18.90
2008,06,29,01,28,18.90
2008,06,29,01,29,18.90
2008,06,29,01,30,18.90
2008,06,29,01,31,18.90
2008,06,29,01,32,18.90
2008,06,29,01,33,18.80
2008,06,29,01,34,18.80
2008,06,29,01,35,18.80
2008,06,29,01,36,18.80
2008,06,29,01,37,18.70
2008,06,29,01,38,18.70
2008,06,29,01,39,18.70
2008,06,29,01,40,18.70
2008,06,29,01,41,18.70
2008,06,29,01,42,18.70
2008,06,29,01,43,18.70
2008,06,29,01,44,18.70
2008,06,29,01,45,18.70
2008,06,29,01,46,18.70
2008,06,29,01,47,18.70
2008,06,29,01,48,18.60
2008,06,29,01,49,18.60
2008,06,29,01,50,18.50
2008,06,29,01,51,18.50
2008,06,29,01,52,18.40
2008,06,29,01,53,18.40
2008,06,29,01,54,18.40
2008,06,29,01,55,18.30
2008,06,29,01,56,18.30
2008,06,29,01,57,18.30
2008,06,29,01,58,18.30
2008,06,29,01,59,18.30
2008,06,29,02,00,18.20
2008,06,29,02,01,18.20
2008,06,29,02,02,18.20
2008,06,29,02,03,18.20
2008,06,29,02,04,18.20
2008,06,29,02,05,18.20
2008,06,29,02,06,18.20
2008,06,29,02,07,18.20
2008,06,29,02,08,18.20
2008,06,29,02,09,18.10
2008,06,29,02,10,18.10
2008,06,29,02,11,18.10
2008,06,29,02,12,18.00
2008,06,29,02,13,17.90
2008,06,29,02,14,17.90
2008,06,29,02,15,17.90
2008,06,29,02,16,17.90
2008,06,29,02,17,17.90
2008,06,29,02,18,17.90
2008,06,29,02,19,17.90
2008,06,29,02,20,17.90
2008,06,29,02,21,17.90
2008,06,29,02,22,17.90
2008,06,29,02,23,17.90
2008,06,29,02,24,17.90
2008,06,29,02,25,17.90
2008,06,29,02,26,17.90
2008,06,29,02,27,17.80
2008,06,29,02,28,17.80
2008,06,29,02,29,17.80
2008,06,29,02,30,17.90
2008,06,29,02,31,17.80
2008,06,29,02,32,17.80
2008,06,29,02,33,17.80
2008,06,29,02,34,17.70
2008,06,29,02,35,17.70
2008,06,29,02,36,17.70
2008,06,29,02,37,17.70
2008,06,29,02,38,17.70
2008,06,29,02,39,17.70
2008,06,29,02,40,17.60
2008,06,29,02,41,17.60
2008,06,29,02,42,17.60
2008,06,29,02,43,17.60
2008,06,29,02,44,17.60
2008,06,29,02,45,17.60
2008,06,29,02,46,17.60
2008,06,29,02,47,17.60
2008,06,29,02,48,17.60
2008,06,29,02,49,17.60
2008,06,29,02,50,17.60
2008,06,29,02,51,17.60
2008,06,29,02,52,17.60
2008,06,29,02,53,17.50
2008,06,29,02,54,17.50
2008,06,29,02,55,17.50
2008,06,29,02,56,17.50
2008,06,29,02,57,17.50
2008,06,29,02,58,17.50
2008,06,29,02,59,17.60
2008,06,29,03,00,17.60
2008,06,29,03,01,17.70
2008,06,29,03,02,17.70
2008,06,29,03,03,17.70
2008,06,29,03,04,17.80
2008,06,29,03,05,17.80
2008,06,29,03,06,17.80
2008,06,29,03,07,17.80
2008,06,29,03,08,17.80
2008,06,29,03,09,17.80
2008,06,29,03,10,17.80
2008,06,29,03,11,17.80
2008,06,29,03,12,17.80
2008,06,29,03,13,17.80
2008,06,29,03,14,17.80
2008,06,29,03,15,17.70
2008,06,29,03,16,17.70
2008,06,29,03,17,17.70
2008,06,29,03,18,17.70
2008,06,29,03,19,17.60
2008,06,29,03,20,17.60
2008,06,29,03,21,17.60
2008,06,29,03,22,17.50
2008,06,29,03,23,17.50
2008,06,29,03,24,17.50
2008,06,29,03,25,17.50
2008,06,29,03,26,17.50
2008,06,29,03,27,17.40
2008,06,29,03,28,17.40
2008,06,29,03,29,17.40
2008,06,29,03,30,17.40
2008,06,29,03,31,17.30
2008,06,29,03,32,17.30
2008,06,29,03,33,17.30
2008,06,29,03,34,17.30
2008,06,29,03,35,17.30
2008,06,29,03,36,17.30
2008,06,29,03,37,17.30
2008,06,29,03,38,17.30
2008,06,29,03,39,17.30
2008,06,29,03,40,17.30
2008,06,29,03,41,17.30
2008,06,29,03,42,17.30
2008,06,29,03,43,17.30
2008,06,29,03,44,17.40
2008,06,29,03,45,17.40
2008,06,29,03,46,17.40
2008,06,29,03,47,17.50
2008,06,29,03,48,17.50
2008,06,29,03,49,17.50
2008,06,29,03,50,17.50
2008,06,29,03,51,17.40
2008,06,29,03,52,17.40
2008,06,29,03,53,17.40
2008,06,29,03,54,17.40
2008,06,29,03,55,17.40
2008,06,29,03,56,17.30
2008,06,29,03,57,17.30
2008,06,29,03,58,17.30
2008,06,29,03,59,17.30
2008,06,29,04,00,17.20
2008,06,29,04,01,17.20
2008,06,29,04,02,17.20
2008,06,29,04,03,17.20
2008,06,29,04,04,17.20
2008,06,29,04,05,17.20
2008,06,29,04,06,17.20
2008,06,29,04,07,17.20
2008,06,29,04,08,17.20
2008,06,29,04,09,17.20
2008,06,29,04,10,17.20
2008,06,29,04,11,17.20
2008,06,29,04,12,17.20
2008,06,29,04,13,17.20
2008,06,29,04,14,17.20
2008,06,29,04,15,17.20
2008,06,29,04,16,17.10
2008,06,29,04,17,17.10
2008,06,29,04,18,17.20
2008,06,29,04,19,17.20
2008,06,29,04,20,17.20
2008,06,29,04,21,17.20
2008,06,29,04,22,17.10
2008,06,29,04,23,17.10
2008,06,29,04,24,17.10
2008,06,29,04,25,17.00
2008,06,29,04,26,17.00
2008,06,29,04,27,17.00
2008,06,29,04,28,17.00
2008,06,29,04,29,17.00
2008,06,29,04,30,17.10
2008,06,29,04,31,17.10
2008,06,29,04,32,17.00
2008,06,29,04,33,17.00
2008,06,29,04,34,17.00
2008,06,29,04,35,17.00
2008,06,29,04,36,17.00
2008,06,29,04,37,16.90
2008,06,29,04,38,16.90
2008,06,29,04,39,16.80
2008,06,29,04,40,16.80
2008,06,29,04,41,16.80
2008,06,29,04,42,16.80
2008,06,29,04,43,16.80
2008,06,29,04,44,16.70
2008,06,29,04,45,16.70
2008,06,29,04,46,16.80
2008,06,29,04,47,16.80
2008,06,29,04,48,16.70
2008,06,29,04,49,16.80
2008,06,29,04,50,16.80
2008,06,29,04,51,16.80
2008,06,29,04,52,16.80
2008,06,29,04,53,16.80
2008,06,29,04,54,16.80
2008,06,29,04,55,16.80
2008,06,29,04,56,16.80
2008,06,29,04,57,17.00
2008,06,29,04,58,17.00
2008,06,29,04,59,17.00
2008,06,29,05,00,17.00
2008,06,29,05,01,17.00
2008,06,29,05,02,17.00
2008,06,29,05,03,17.00
2008,06,29,05,04,17.00
2008,06,29,05,05,17.00
2008,06,29,05,06,17.00
2008,06,29,05,07,17.00
2008,06,29,05,08,17.00
2008,06,29,05,09,17.00
2008,06,29,05,10,17.00
2008,06,29,05,11,16.90
2008,06,29,05,12,16.90
2008,06,29,05,13,17.00
2008,06,29,05,14,17.00
2008,06,29,05,15,16.90
2008,06,29,05,16,16.90
2008,06,29,05,17,16.90
2008,06,29,05,18,16.90
2008,06,29,05,19,16.80
2008,06,29,05,20,16.70
2008,06,29,05,21,16.70
2008,06,29,05,22,16.70
2008,06,29,05,23,16.70
2008,06,29,05,24,16.70
2008,06,29,05,25,16.70
2008,06,29,05,26,16.70
2008,06,29,05,27,16.70
2008,06,29,05,28,16.70
2008,06,29,05,29,16.70
2008,06,29,05,30,16.70
2008,06,29,05,31,16.70
2008,06,29,05,32,16.70
2008,06,29,05,33,16.60
2008,06,29,05,34,16.60
2008,06,29,05,35,16.50
2008,06,29,05,36,16.40
2008,06,29,05,37,16.40
2008,06,29,05,38,16.40
2008,06,29,05,39,16.40
2008,06,29,05,40,16.40
2008,06,29,05,41,16.40
2008,06,29,05,42,16.40
2008,06,29,05,43,16.30
2008,06,29,05,44,16.30
2008,06,29,05,45,16.30
2008,06,29,05,46,16.30
2008,06,29,05,47,16.30
2008,06,29,05,48,16.30
2008,06,29,05,49,16.30
2008,06,29,05,50,16.30
2008,06,29,05,51,16.30
2008,06,29,05,52,16.30
2008,06,29,05,53,16.30
2008,06,29,05,54,16.30
2008,06,29,05,55,16.30
2008,06,29,05,56,16.40
2008,06,29,05,57,16.40
2008,06,29,05,58,16.30
2008,06,29,05,59,16.30
2008,06,29,06,00,16.30
2008,06,29,06,01,16.30
2008,06,29,06,02,16.30
2008,06,29,06,03,16.30
2008,06,29,06,04,16.40
2008,06,29,06,05,16.40
2008,06,29,06,06,16.40
2008,06,29,06,07,16.40
2008,06,29,06,08,16.40
2008,06,29,06,09,16.40
2008,06,29,06,10,16.40
2008,06,29,06,11,16.40
2008,06,29,06,12,16.40
2008,06,29,06,13,16.40
2008,06,29,06,14,16.40
2008,06,29,06,15,16.40
2008,06,29,06,16,16.40
2008,06,29,06,17,16.40
2008,06,29,06,18,16.40
2008,06,29,06,19,16.40
2008,06,29,06,20,16.40
2008,06,29,06,21,16.50
2008,06,29,06,22,16.60
2008,06,29,06,23,16.60
2008,06,29,06,24,16.60
2008,06,29,06,25,16.70
2008,06,29,06,26,16.70
2008,06,29,06,27,16.70
2008,06,29,06,28,16.70
2008,06,29,06,29,16.70
2008,06,29,06,30,16.70
2008,06,29,06,31,16.80
2008,06,29,06,32,16.80
2008,06,29,06,33,16.80
2008,06,29,06,34,16.80
2008,06,29,06,35,16.90
2008,06,29,06,36,16.90
2008,06,29,06,37,16.90
2008,06,29,06,38,16.90
2008,06,29,06,39,17.00
2008,06,29,06,40,17.00
2008,06,29,06,41,17.10
2008,06,29,06,42,17.10
2008,06,29,06,43,17.10
2008,06,29,06,44,17.20
2008,06,29,06,45,17.20
2008,06,29,06,46,17.20
2008,06,29,06,47,17.30
2008,06,29,06,48,17.30
2008,06,29,06,49,17.30
2008,06,29,06,50,17.30
2008,06,29,06,51,17.30
2008,06,29,06,52,17.30
2008,06,29,06,53,17.30
2008,06,29,06,54,17.30
2008,06,29,06,55,17.40
2008,06,29,06,56,17.40
2008,06,29,06,57,17.50
2008,06,29,06,58,17.60
2008,06,29,06,59,17.60
2008,06,29,07,00,17.70
2008,06,29,07,01,17.70
2008,06,29,07,02,17.80
2008,06,29,07,03,17.80
2008,06,29,07,04,17.90
2008,06,29,07,05,17.90
2008,06,29,07,06,18.00
2008,06,29,07,07,18.10
2008,06,29,07,08,18.10
2008,06,29,07,09,18.20
2008,06,29,07,10,18.20
2008,06,29,07,11,18.20
2008,06,29,07,12,18.20
2008,06,29,07,13,18.20
2008,06,29,07,14,18.30
2008,06,29,07,15,18.30
2008,06,29,07,16,18.30
2008,06,29,07,17,18.40
2008,06,29,07,18,18.40
2008,06,29,07,19,18.50
2008,06,29,07,20,18.50
2008,06,29,07,21,18.60
2008,06,29,07,22,18.60
2008,06,29,07,23,18.70
2008,06,29,07,24,18.70
2008,06,29,07,25,18.80
2008,06,29,07,26,18.90
2008,06,29,07,27,18.90
2008,06,29,07,28,18.90
2008,06,29,07,29,19.00
2008,06,29,07,30,19.10
2008,06,29,07,31,19.10
2008,06,29,07,32,19.10
2008,06,29,07,33,19.20
2008,06,29,07,34,19.20
2008,06,29,07,35,19.20
2008,06,29,07,36,19.30
2008,06,29,07,37,19.40
2008,06,29,07,38,19.50
2008,06,29,07,39,19.50
2008,06,29,07,40,19.60
2008,06,29,07,41,19.60
2008,06,29,07,42,19.60
2008,06,29,07,43,19.60
2008,06,29,07,44,19.60
2008,06,29,07,45,19.60
2008,06,29,07,46,19.60
2008,06,29,07,47,19.60
2008,06,29,07,48,19.50
2008,06,29,07,49,19.50
2008,06,29,07,50,19.40
2008,06,29,07,51,19.30
2008,06,29,07,52,19.20
2008,06,29,07,53,19.10
2008,06,29,07,54,18.90
2008,06,29,07,55,18.80
2008,06,29,07,56,18.70
2008,06,29,07,57,18.70
2008,06,29,07,58,18.60
2008,06,29,07,59,18.60
2008,06,29,08,00,18.60
2008,06,29,08,01,18.60
2008,06,29,08,02,18.60
2008,06,29,08,03,18.60
2008,06,29,08,04,18.60
2008,06,29,08,05,18.60
2008,06,29,08,06,18.60
2008,06,29,08,07,18.50
2008,06,29,08,08,18.40
2008,06,29,08,09,18.40
2008,06,29,08,10,18.40
2008,06,29,08,11,18.40
2008,06,29,08,12,18.40
2008,06,29,08,13,18.40
2008,06,29,08,14,18.50
2008,06,29,08,15,18.50
2008,06,29,08,16,18.50
2008,06,29,08,17,18.50
2008,06,29,08,18,18.60
2008,06,29,08,19,18.60
2008,06,29,08,20,18.60
2008,06,29,08,21,18.60
2008,06,29,08,22,18.70
2008,06,29,08,23,18.70
2008,06,29,08,24,18.80
2008,06,29,08,25,18.90
2008,06,29,08,26,18.90
2008,06,29,08,27,19.10
2008,06,29,08,28,19.10
2008,06,29,08,29,19.20
2008,06,29,08,30,19.30
2008,06,29,08,31,19.40
2008,06,29,08,32,19.40
2008,06,29,08,33,19.50
2008,06,29,08,34,19.50
2008,06,29,08,35,19.60
2008,06,29,08,36,19.60
2008,06,29,08,37,19.70
2008,06,29,08,38,19.90
2008,06,29,08,39,19.90
2008,06,29,08,40,20.10
2008,06,29,08,41,20.20
2008,06,29,08,42,20.20
2008,06,29,08,43,20.40
2008,06,29,08,44,20.60
2008,06,29,08,45,20.80
2008,06,29,08,46,20.90
2008,06,29,08,47,21.10
2008,06,29,08,48,21.30
2008,06,29,08,49,21.50
2008,06,29,08,50,21.70
2008,06,29,08,51,21.90
2008,06,29,08,52,22.00
2008,06,29,08,53,22.20
2008,06,29,08,54,22.30
2008,06,29,08,55,22.40
2008,06,29,08,56,22.60
2008,06,29,08,57,22.70
2008,06,29,08,58,22.90
2008,06,29,08,59,22.90
2008,06,29,09,00,22.90
2008,06,29,09,01,22.90
2008,06,29,09,02,23.00
2008,06,29,09,03,23.10
2008,06,29,09,04,23.20
2008,06,29,09,05,23.30
2008,06,29,09,06,23.30
2008,06,29,09,07,23.40
2008,06,29,09,08,23.40
2008,06,29,09,09,23.60
2008,06,29,09,10,23.60
2008,06,29,09,11,23.70
2008,06,29,09,12,23.70
2008,06,29,09,13,23.70
2008,06,29,09,14,23.80
2008,06,29,09,15,23.80
2008,06,29,09,16,23.90
2008,06,29,09,17,24.20
2008,06,29,09,18,24.40
2008,06,29,09,19,24.50
2008,06,29,09,20,24.70
2008,06,29,09,21,24.80
2008,06,29,09,22,25.00
2008,06,29,09,23,25.10
2008,06,29,09,24,25.20
2008,06,29,09,25,25.40
2008,06,29,09,26,25.50
2008,06,29,09,27,25.60
2008,06,29,09,28,25.60
2008,06,29,09,29,25.60
2008,06,29,09,30,25.60
2008,06,29,09,31,25.60
2008,06,29,09,32,25.60
2008,06,29,09,33,25.60
2008,06,29,09,34,25.60
2008,06,29,09,35,25.60
2008,06,29,09,36,25.60
2008,06,29,09,37,25.50
2008,06,29,09,38,25.50
2008,06,29,09,39,25.40
2008,06,29,09,40,25.40
2008,06,29,09,41,25.40
2008,06,29,09,42,25.40
2008,06,29,09,43,25.50
2008,06,29,09,44,25.50
2008,06,29,09,45,25.60
2008,06,29,09,46,25.60
2008,06,29,09,47,25.60
2008,06,29,09,48,25.70
2008,06,29,09,49,25.70
2008,06,29,09,50,25.80
2008,06,29,09,51,25.80
2008,06,29,09,52,25.90
2008,06,29,09,53,25.90
2008,06,29,09,54,25.90
2008,06,29,09,55,25.90
2008,06,29,09,56,26.00
2008,06,29,09,57,26.00
2008,06,29,09,58,26.00
2008,06,29,09,59,26.10
2008,06,29,10,00,26.10
2008,06,29,10,01,26.30
2008,06,29,10,02,26.40
2008,06,29,10,03,26.40
2008,06,29,10,04,26.50
2008,06,29,10,05,26.40
2008,06,29,10,06,26.40
2008,06,29,10,07,26.40
2008,06,29,10,08,26.40
2008,06,29,10,09,26.40
2008,06,29,10,10,26.40
2008,06,29,10,11,26.40
2008,06,29,10,12,26.40
2008,06,29,10,13,26.40
2008,06,29,10,14,26.50
2008,06,29,10,15,26.60
2008,06,29,10,16,26.60
2008,06,29,10,17,26.60
2008,06,29,10,18,26.60
2008,06,29,10,19,26.60
2008,06,29,10,20,26.60
2008,06,29,10,21,26.50
2008,06,29,10,22,26.40
2008,06,29,10,23,26.20
2008,06,29,10,24,26.20
2008,06,29,10,25,26.20
2008,06,29,10,26,26.30
2008,06,29,10,27,26.30
2008,06,29,10,28,26.40
2008,06,29,10,29,26.50
2008,06,29,10,30,26.60
2008,06,29,10,31,26.60
2008,06,29,10,32,26.60
2008,06,29,10,33,26.60
2008,06,29,10,34,26.70
2008,06,29,10,35,26.70
2008,06,29,10,36,26.70
2008,06,29,10,37,26.70
2008,06,29,10,38,26.70
2008,06,29,10,39,26.70
2008,06,29,10,40,26.70
2008,06,29,10,41,26.70
2008,06,29,10,42,26.70
2008,06,29,10,43,26.60
2008,06,29,10,44,26.60
2008,06,29,10,45,26.60
2008,06,29,10,46,26.60
2008,06,29,10,47,26.60
2008,06,29,10,48,26.60
2008,06,29,10,49,26.60
2008,06,29,10,50,26.60
2008,06,29,10,51,26.60
2008,06,29,10,52,26.60
2008,06,29,10,53,26.70
2008,06,29,10,54,26.70
2008,06,29,10,55,26.70
2008,06,29,10,56,26.70
2008,06,29,10,57,26.60
2008,06,29,10,58,26.60
2008,06,29,10,59,26.60
2008,06,29,11,00,26.60
2008,06,29,11,01,26.60
2008,06,29,11,02,26.60
2008,06,29,11,03,26.60
2008,06,29,11,04,26.60
2008,06,29,11,05,26.70
2008,06,29,11,06,26.80
2008,06,29,11,07,26.90
2008,06,29,11,08,27.00
2008,06,29,11,09,27.10
2008,06,29,11,10,27.10
2008,06,29,11,11,27.10
2008,06,29,11,12,27.10
2008,06,29,11,13,27.10
2008,06,29,11,14,27.10
2008,06,29,11,15,27.00
2008,06,29,11,16,26.90
2008,06,29,11,17,27.00
2008,06,29,11,18,27.10
2008,06,29,11,19,27.20
2008,06,29,11,20,27.20
2008,06,29,11,21,27.20
2008,06,29,11,22,27.20
2008,06,29,11,23,27.20
2008,06,29,11,24,27.20
2008,06,29,11,25,27.10
2008,06,29,11,26,27.10
2008,06,29,11,27,27.10
2008,06,29,11,28,27.10
2008,06,29,11,29,27.10
2008,06,29,11,30,27.20
2008,06,29,11,31,27.30
2008,06,29,11,32,27.30
2008,06,29,11,33,27.30
2008,06,29,11,34,27.30
2008,06,29,11,35,27.30
2008,06,29,11,36,27.30
2008,06,29,11,37,27.30
2008,06,29,11,38,27.30
2008,06,29,11,39,27.30
2008,06,29,11,40,27.30
2008,06,29,11,41,27.30
2008,06,29,11,42,27.30
2008,06,29,11,43,27.30
2008,06,29,11,44,27.30
2008,06,29,11,45,27.40
2008,06,29,11,46,27.60
2008,06,29,11,47,27.70
2008,06,29,11,48,27.80
2008,06,29,11,49,27.80
2008,06,29,11,50,27.80
2008,06,29,11,51,27.70
2008,06,29,11,52,27.60
2008,06,29,11,53,27.60
2008,06,29,11,54,27.60
2008,06,29,11,55,27.60
2008,06,29,11,56,27.60
2008,06,29,11,57,27.70
2008,06,29,11,58,27.70
2008,06,29,11,59,27.70
2008,06,29,12,00,27.80
2008,06,29,12,01,27.70
2008,06,29,12,02,27.60
2008,06,29,12,03,27.60
2008,06,29,12,04,27.60
2008,06,29,12,05,27.60
2008,06,29,12,06,27.60
2008,06,29,12,07,27.60
2008,06,29,12,08,27.60
2008,06,29,12,09,27.60
2008,06,29,12,10,27.60
2008,06,29,12,11,27.60
2008,06,29,12,12,27.60
2008,06,29,12,13,27.60
2008,06,29,12,14,27.60
2008,06,29,12,15,27.60
2008,06,29,12,16,27.60
2008,06,29,12,17,27.60
2008,06,29,12,18,27.60
2008,06,29,12,19,27.60
2008,06,29,12,20,27.60
2008,06,29,12,21,27.70
2008,06,29,12,22,27.80
2008,06,29,12,23,27.80
2008,06,29,12,24,27.90
2008,06,29,12,25,28.00
2008,06,29,12,26,28.00
2008,06,29,12,27,28.10
2008,06,29,12,28,28.10
2008,06,29,12,29,28.20
2008,06,29,12,30,28.10
2008,06,29,12,31,28.00
2008,06,29,12,32,28.00
2008,06,29,12,33,27.90
2008,06,29,12,34,27.90
2008,06,29,12,35,28.00
2008,06,29,12,36,28.00
2008,06,29,12,37,28.10
2008,06,29,12,38,28.20
2008,06,29,12,39,28.30
2008,06,29,12,40,28.40
2008,06,29,12,41,28.50
2008,06,29,12,42,28.50
2008,06,29,12,43,28.40
2008,06,29,12,44,28.40
2008,06,29,12,45,28.40
2008,06,29,12,46,28.40
2008,06,29,12,47,28.40
2008,06,29,12,48,28.30
2008,06,29,12,49,28.40
2008,06,29,12,50,28.40
2008,06,29,12,51,28.40
2008,06,29,12,52,28.50
2008,06,29,12,53,28.60
2008,06,29,12,54,28.60
2008,06,29,12,55,28.70
2008,06,29,12,56,28.70
2008,06,29,12,57,28.80
2008,06,29,12,58,28.90
2008,06,29,12,59,28.90
2008,06,29,13,00,28.90
2008,06,29,13,01,28.90
2008,06,29,13,02,28.90
2008,06,29,13,03,28.90
2008,06,29,13,04,28.90
2008,06,29,13,05,28.90
2008,06,29,13,06,28.90
2008,06,29,13,07,28.90
2008,06,29,13,08,28.90
2008,06,29,13,09,28.90
2008,06,29,13,10,28.90
2008,06,29,13,11,28.90
2008,06,29,13,12,28.90
2008,06,29,13,13,28.90
2008,06,29,13,14,28.90
2008,06,29,13,15,28.90
2008,06,29,13,16,28.90
2008,06,29,13,17,28.90
2008,06,29,13,18,29.00
2008,06,29,13,19,29.10
2008,06,29,13,20,29.10
2008,06,29,13,21,29.20
2008,06,29,13,22,29.20
2008,06,29,13,23,29.30
2008,06,29,13,24,29.30
2008,06,29,13,25,29.40
2008,06,29,13,26,29.40
2008,06,29,13,27,29.50
2008,06,29,13,28,29.60
2008,06,29,13,29,29.60
2008,06,29,13,30,29.60
2008,06,29,13,31,29.50
2008,06,29,13,32,29.50
2008,06,29,13,33,29.60
2008,06,29,13,34,29.60
2008,06,29,13,35,29.60
2008,06,29,13,36,29.60
2008,06,29,13,37,29.70
2008,06,29,13,38,29.60
2008,06,29,13,39,29.50
2008,06,29,13,40,29.50
2008,06,29,13,41,29.50
2008,06,29,13,42,29.60
2008,06,29,13,43,29.60
2008,06,29,13,44,29.60
2008,06,29,13,45,29.60
2008,06,29,13,46,29.60
2008,06,29,13,47,29.60
2008,06,29,13,48,29.60
2008,06,29,13,49,29.60
2008,06,29,13,50,29.60
2008,06,29,13,51,29.60
2008,06,29,13,52,27.20
2008,06,29,13,53,26.90
2008,06,29,13,54,26.80
2008,06,29,13,55,26.80
2008,06,29,13,56,26.80
2008,06,29,13,57,26.80
2008,06,29,13,58,26.80
2008,06,29,13,59,26.80
2008,06,29,14,00,26.70
2008,06,29,14,01,26.60
2008,06,29,14,02,26.50
2008,06,29,14,03,26.40
2008,06,29,14,04,26.40
2008,06,29,14,05,26.40
2008,06,29,14,06,26.40
2008,06,29,14,07,26.50
2008,06,29,14,08,26.60
2008,06,29,14,09,26.80
2008,06,29,14,10,26.90
2008,06,29,14,11,27.00
2008,06,29,14,12,27.00
2008,06,29,14,13,26.90
2008,06,29,14,14,26.70
2008,06,29,14,15,26.60
2008,06,29,14,16,26.60
2008,06,29,14,17,26.70
2008,06,29,14,18,26.60
2008,06,29,14,19,26.40
2008,06,29,14,20,26.30
2008,06,29,14,21,26.30
2008,06,29,14,22,26.40
2008,06,29,14,23,26.40
2008,06,29,14,24,26.30
2008,06,29,14,25,26.00
2008,06,29,14,26,25.80
2008,06,29,14,27,25.70
2008,06,29,14,28,25.60
2008,06,29,14,29,25.60
2008,06,29,14,30,25.60
2008,06,29,14,31,25.60
2008,06,29,14,32,25.70
2008,06,29,14,33,25.90
2008,06,29,14,34,26.00
2008,06,29,14,35,25.90
2008,06,29,14,36,26.00
2008,06,29,14,37,26.10
2008,06,29,14,38,26.30
2008,06,29,14,39,26.20
2008,06,29,14,40,26.20
2008,06,29,14,41,26.10
2008,06,29,14,42,26.00
2008,06,29,14,43,26.10
2008,06,29,14,44,26.20
2008,06,29,14,45,26.10
2008,06,29,14,46,26.10
2008,06,29,14,47,26.00
2008,06,29,14,48,26.00
2008,06,29,14,49,26.10
2008,06,29,14,50,26.30
2008,06,29,14,51,26.50
2008,06,29,14,52,26.60
2008,06,29,14,53,26.80
2008,06,29,14,54,27.00
2008,06,29,14,55,27.10
2008,06,29,14,56,27.30
2008,06,29,14,57,27.30
2008,06,29,14,58,27.30
2008,06,29,14,59,27.30
2008,06,29,15,00,27.30
2008,06,29,15,01,27.40
2008,06,29,15,02,27.40
2008,06,29,15,03,27.30
2008,06,29,15,04,27.10
2008,06,29,15,05,26.80
2008,06,29,15,06,26.60
2008,06,29,15,07,26.70
2008,06,29,15,08,26.70
2008,06,29,15,09,26.70
2008,06,29,15,10,26.70
2008,06,29,15,11,26.90
2008,06,29,15,12,27.00
2008,06,29,15,13,27.10
2008,06,29,15,14,27.10
2008,06,29,15,15,27.10
2008,06,29,15,16,27.10
2008,06,29,15,17,27.30
2008,06,29,15,18,27.50
2008,06,29,15,19,27.60
2008,06,29,15,20,27.70
2008,06,29,15,21,27.80
2008,06,29,15,22,27.80
2008,06,29,15,23,27.90
2008,06,29,15,24,27.90
2008,06,29,15,25,27.90
2008,06,29,15,26,28.00
2008,06,29,15,27,28.00
2008,06,29,15,28,28.00
2008,06,29,15,29,28.00
2008,06,29,15,30,28.00
2008,06,29,15,31,28.10
2008,06,29,15,32,28.20
2008,06,29,15,33,28.20
2008,06,29,15,34,28.20
2008,06,29,15,35,28.10
2008,06,29,15,36,28.10
2008,06,29,15,37,28.10
2008,06,29,15,38,28.20
2008,06,29,15,39,27.90
2008,06,29,15,40,27.80
2008,06,29,15,41,27.70
2008,06,29,15,42,27.70
2008,06,29,15,43,27.70
2008,06,29,15,44,27.60
2008,06,29,15,45,27.40
2008,06,29,15,46,27.40
2008,06,29,15,47,27.50
2008,06,29,15,48,27.60
2008,06,29,15,49,27.60
2008,06,29,15,50,27.70
2008,06,29,15,51,27.70
2008,06,29,15,52,27.60
2008,06,29,15,53,27.40
2008,06,29,15,54,27.20
2008,06,29,15,55,27.20
2008,06,29,15,56,27.30
2008,06,29,15,57,27.30
2008,06,29,15,58,27.50
2008,06,29,15,59,27.60
2008,06,29,16,00,27.80
2008,06,29,16,01,27.90
2008,06,29,16,02,27.90
2008,06,29,16,03,28.00
2008,06,29,16,04,28.00
2008,06,29,16,05,28.00
2008,06,29,16,06,28.00
2008,06,29,16,07,28.00
2008,06,29,16,08,28.00
2008,06,29,16,09,28.00
2008,06,29,16,10,28.00
2008,06,29,16,11,28.00
2008,06,29,16,12,28.00
2008,06,29,16,13,28.00
2008,06,29,16,14,28.10
2008,06,29,16,15,28.10
2008,06,29,16,16,28.10
2008,06,29,16,17,28.10
2008,06,29,16,18,28.20
2008,06,29,16,19,28.20
2008,06,29,16,20,28.20
2008,06,29,16,21,28.20
2008,06,29,16,22,28.20
2008,06,29,16,23,28.20
2008,06,29,16,24,28.20
2008,06,29,16,25,28.20
2008,06,29,16,26,28.20
2008,06,29,16,27,28.30
2008,06,29,16,28,28.30
2008,06,29,16,29,28.40
2008,06,29,16,30,28.40
2008,06,29,16,31,28.50
2008,06,29,16,32,28.60
2008,06,29,16,33,28.60
2008,06,29,16,34,28.60
2008,06,29,16,35,28.40
2008,06,29,16,36,28.40
2008,06,29,16,37,28.40
2008,06,29,16,38,28.40
2008,06,29,16,39,28.40
2008,06,29,16,40,28.40
2008,06,29,16,41,28.30
2008,06,29,16,42,28.30
2008,06,29,16,43,28.30
2008,06,29,16,44,28.30
2008,06,29,16,45,28.30
2008,06,29,16,46,28.30
2008,06,29,16,47,28.30
2008,06,29,16,48,28.20
2008,06,29,16,49,28.20
2008,06,29,16,50,28.20
2008,06,29,16,51,28.00
2008,06,29,16,52,28.00
2008,06,29,16,53,27.90
2008,06,29,16,54,27.90
2008,06,29,16,55,28.00
2008,06,29,16,56,28.00
2008,06,29,16,57,28.00
2008,06,29,16,58,28.00
2008,06,29,16,59,28.00
2008,06,29,17,00,28.10
2008,06,29,17,01,28.10
2008,06,29,17,02,28.30
2008,06,29,17,03,28.40
2008,06,29,17,04,28.40
2008,06,29,17,05,28.50
2008,06,29,17,06,28.50
2008,06,29,17,07,28.40
2008,06,29,17,08,28.40
2008,06,29,17,09,28.40
2008,06,29,17,10,28.40
2008,06,29,17,11,28.40
2008,06,29,17,12,28.40
2008,06,29,17,13,28.60
2008,06,29,17,14,28.60
2008,06,29,17,15,28.70
2008,06,29,17,16,28.70
2008,06,29,17,17,28.80
2008,06,29,17,18,28.80
2008,06,29,17,19,28.70